New Orleans, LA

5:10 PM CDT on September 28, 2016 (GMT -0500)
Lakefront

Weather History for KNEW - October, 2012

Change the Weather History Date:

Saturday, October 20, 2012

  Actual Average Record
Temperature  
Mean Temperature 68 °F 70 °F  
Max Temperature 81 °F 79 °F 90 °F (2004)
Min Temperature 54 °F 61 °F 35 °F (1989)
Degree Days  
Heating Degree Days 0 1  
Month to date heating degree days 0 7  
Since 1 July heating degree days 0 7  
Cooling Degree Days 3 6  
Month to date cooling degree days 153 167  
Year to date cooling degree days 3294 2856  
Growing Degree Days 17 (Base 50)    
Moisture  
Dew Point 48 °F    
Average Humidity 50    
Maximum Humidity 78    
Minimum Humidity 21    
Precipitation  
Precipitation 0.00 in 0.11 in 0.44 in (1959)
Month to date precipitation 0.40 2.22  
Year to date precipitation 60.65 51.40  
Snow  
Snow 0.00 in - - ()
Month to date snowfall 0.0  
Since 1 July snowfall 0.0  
Since 1 September snowfall 0.0  
Snow Depth 0.00 in    
Sea Level Pressure  
Sea Level Pressure 29.96 in    
Wind  
Wind Speed 2 mph (NW)    
Max Wind Speed 8 mph    
Max Gust Speed 30 mph    
Visibility 10 miles    
Events      
T = Trace of Precipitation, MM = Missing Value Source: NWS Daily Summary

Daily Weather History Graph

Daily Weather History Graph

Search for Another Location

Airport or City:

Trip Planner

Search our weather history database for the weather conditions in past years. The results will help you decide how hot, cold, wet, or windy it might be!

Date:

Astronomy

Oct. 20, 2012 Rise Set
Actual Time 7:05 AM CDT 6:23 PM CDT
Civil Twilight 6:41 AM CDT 6:47 PM CDT
Nautical Twilight 6:13 AM CDT 7:15 PM CDT
Astronomical Twilight 5:45 AM CDT 7:43 PM CDT
Moon 12:29 PM CDT (10/20) 11:20 PM CDT (10/20)
Length of Visible Light 12h 06m
Length of Day
11h 17m
Waxing Crescent, 34% of the Moon is Illuminated
Oct 20
Waxing Crescent
Oct 21
First Quarter
Oct 29
Full
Nov 6
Last Quarter
Nov 13
New

Hourly Weather History & Observations

Time (CDT) Temp. Dew Point Humidity Pressure Visibility Wind Dir Wind Speed Gust Speed Precip Events Conditions
12:53 AM 70.0 °F 55.0 °F 59% 29.92 in 10.0 mi West 6.9 mph - N/A   Clear
1:53 AM 71.1 °F 48.0 °F 44% 29.93 in 10.0 mi NNW 10.4 mph - N/A   Clear
2:53 AM 70.0 °F 48.0 °F 46% 29.92 in 10.0 mi NNW 10.4 mph - N/A   Clear
3:53 AM 70.0 °F 48.0 °F 46% 29.93 in 10.0 mi NNW 8.1 mph - N/A   Clear
4:53 AM 69.1 °F 50.0 °F 51% 29.94 in 10.0 mi NW 5.8 mph - N/A   Clear
5:53 AM 66.0 °F 48.9 °F 54% 29.96 in 10.0 mi NW 4.6 mph - N/A   Clear
6:53 AM 66.9 °F 48.9 °F 52% 29.96 in 10.0 mi NNW 5.8 mph - N/A   Clear
7:53 AM 59.0 °F 52.0 °F 78% 29.98 in 10.0 mi Calm Calm - N/A   Clear
8:53 AM 66.9 °F 55.0 °F 66% 30.00 in 10.0 mi Calm Calm - N/A   Clear
9:53 AM 71.1 °F 50.0 °F 47% 30.01 in 10.0 mi NNE 3.5 mph - N/A   Clear
10:53 AM 71.1 °F 54.0 °F 55% 30.01 in 10.0 mi NNE 5.8 mph - N/A   Clear
11:53 AM 73.0 °F 46.0 °F 38% 30.01 in 10.0 mi NNE 3.5 mph - N/A   Clear
12:53 PM 75.2 °F 42.8 °F 31% 30.01 in 10.0 mi North 4.6 mph - N/A   Clear
1:53 PM 75.9 °F 39.9 °F 27% 29.96 in 8.0 mi North 3.5 mph - N/A   Clear
2:53 PM 75.0 °F 39.0 °F 27% 29.94 in 10.0 mi WNW 3.5 mph - N/A   Clear
3:53 PM 75.9 °F 39.0 °F 26% 29.94 in 10.0 mi WNW 4.6 mph - N/A   Clear
4:53 PM 75.9 °F 43.0 °F 31% 29.93 in 10.0 mi NW 3.5 mph - N/A   Clear
5:53 PM 75.0 °F 44.1 °F 33% 29.93 in 10.0 mi Calm Calm - N/A   Clear
6:53 PM 73.9 °F 45.0 °F 35% 29.94 in 10.0 mi Calm Calm - N/A   Clear
7:53 PM 73.0 °F 46.9 °F 39% 29.96 in 10.0 mi Calm Calm - N/A   Clear
8:53 PM 70.0 °F 48.9 °F 47% 29.96 in 10.0 mi South 5.8 mph - N/A   Clear
9:53 PM 66.9 °F 52.0 °F 59% 29.98 in 10.0 mi South 5.8 mph - N/A   Clear
10:53 PM 66.0 °F 53.1 °F 63% 29.98 in 10.0 mi South 5.8 mph - N/A   Clear
11:53 PM 64.9 °F 55.0 °F 70% 29.98 in 10.0 mi South 5.8 mph - N/A   Clear